Location: Central Falls
(41.8900°N, 71.3929°W)
Time: 16:35:10
(UTC+00:00)

Vanguard 1 - Pass Details

Date: 10 December 2023
Orbit: 653 x 3826 km, 34.3° (Epoch: 24 February)

Event Time Altitude Azimuth Distance (km) Brightness Sun altitude
Rises 18:18:34 0° 178° (S) 4,185 14.4 21.2°
Reaches altitude 10° 18:23:02 10° 153° (SSE) 3,756 13.7 20.8°
Maximum altitude 18:27:37 14° 125° (SE) 3,984 13.4 20.4°
Drops below altitude 10° 18:33:22 10° 99° (E) 4,954 13.5 19.9°
Sets 18:41:19 0° 80° (E) 6,748 14.0 19.2°
